Tracking 19192 objects as of 21-Jun-2018
HD Live streaming from Space Station
objects crossing your sky now

FENGYUN 1C DEB

Track FENGYUN 1C DEB now!
10-day predictions


NORAD ID: 30930
Int'l Code: 1999-025AZU
Perigee: 708.6 km
Apogee: 876.4 km
Inclination: 98.5 °
Period: 100.6 minutes
Semi major axis: 7163 km
RCS: 0.0025 m2 (small)
Launch date: May 10, 1999
Source: People's Republic of China (PRC)
Launch site: Taiyaun Space Center, China (TSC)

Note: This is SATELLITE DEBRIS
aabbcc
Your satellite tracking list
Your tracking list is empty




NASA's NSSDC Master Catalog

Two Line Element Set (TLE):
1 30930U 99025AZU 18171.18730069  .00000124  00000-0  58946-4 0  9995
2 30930  98.5404 246.6675 0117122 309.4884  77.7974 14.31913586592180
Source of the keplerian elements: AFSPC